Location: USNO
(38.9242°N, 77.0663°W)
Time: 05:22:40
(UTC-04:00)

N. Korean satellite - Pass Details

Date: 14 October 2017
Orbit: 459 x 517 km, 97.2° (Epoch: 23 October)

Event Time Altitude Azimuth Distance (km) Brightness Sun altitude
Rises 19:22:00 0° 174° (S) 2,552 10.2 -10.7°
Reaches altitude 10° 19:24:06 10° 177° (S) 1,666 9.3 -11.1°
Maximum altitude 19:27:39 63° 259° (W) 540 7.1 -11.8°
Drops below altitude 10° 19:31:09 10° 342° (NNW) 1,647 9.5 -12.5°
Sets 19:33:13 0° 345° (NNW) 2,521 10.4 -12.9°
